Weather History for Hope, BC

Change the Weather History Date:

Saturday, March 8, 2014

  Actual Average Record
Temperature  
Mean Temperature 38 °F -  
Max Temperature 42 °F 54 °F 62 °F (2004)
Min Temperature 33 °F 36 °F 17 °F (2003)
Degree Days  
Heating Degree Days 28    
Moisture  
Dew Point 38 °F    
Average Humidity 97    
Maximum Humidity 100    
Minimum Humidity 87    
Precipitation  
Precipitation 0.63 in 0.20 in - ()
Sea Level Pressure  
Sea Level Pressure 29.93 in    
Wind  
Wind Speed 8 mph ()    
Max Wind Speed 13 mph    
Max Gust Speed -    
Visibility 6.5 miles    
Events Rain    
Averages and records for this station are not official NWS values.
T = Trace of Precipitation, MM = Missing Value Source: Averaged Metar Reports

Daily Weather History Graph

Daily Weather History Graph

Search for Another Location

Airport:

Trip Planner

Search our weather history database for the weather conditions in past years. The results will help you decide how hot, cold, wet, or windy it might be!

Date:

Astronomy

Mar. 08, 2014 Rise Set
Actual Time 6:33 AM PST 6:00 PM PST
Civil Twilight 6:02 AM PST 6:32 PM PST
Nautical Twilight 5:25 AM PST 7:09 PM PST
Astronomical Twilight 4:47 AM PST 7:46 PM PST
Moon 10:45 AM PST (3/8) 1:36 AM PST (3/8)
Length of Visible Light 12h 30m
Length of Day
11h 26m
First Quarter, 53% of the Moon is Illuminated
Mar 8
First Quarter
Mar 16
Full
Mar 23
Last Quarter
Mar 30
New
Apr 7
First Quarter

Hourly Weather History & Observations

Time (PST) Temp. Windchill Dew Point Humidity Pressure Visibility Wind Dir Wind Speed Gust Speed Precip Events Conditions
12:00 AM 39.2 °F 35.0 °F 37.4 °F 93% 30.16 in 9.0 mi East 5.8 mph - N/A   Clear
1:00 AM 37 °F - 36 °F 95% 30.17 in - East 8.1 mph - -  
1:00 AM 37.4 °F 31.4 °F 35.6 °F 93% 30.16 in 9.0 mi East 8.1 mph - N/A   Clear
1:40 AM 35.6 °F 28.0 °F 35.6 °F 100% 30.15 in 5.0 mi East 10.4 mph - N/A   Clear
1:45 AM 35.6 °F 27.5 °F 35.6 °F 100% 30.15 in 2.5 mi ESE 11.5 mph - N/A   Partly Cloudy
2:00 AM 35.6 °F 28.6 °F 35.6 °F 100% 30.14 in 1.5 mi ESE 9.2 mph - N/A   Scattered Clouds
2:06 AM 35.6 °F 28.6 °F 35.6 °F 100% 30.14 in 3.0 mi ESE 9.2 mph - N/A   Scattered Clouds
2:08 AM 35.6 °F 28.0 °F 35.6 °F 100% 30.14 in 8.0 mi ESE 10.4 mph - N/A   Scattered Clouds
2:17 AM 33.8 °F 27.0 °F 33.8 °F 100% 30.13 in 5.0 mi ESE 8.1 mph - N/A   Mostly Cloudy
2:26 AM 35.6 °F 29.2 °F 35.6 °F 100% 30.13 in 6.0 mi East 8.1 mph - N/A   Mostly Cloudy
2:34 AM 33.8 °F 25.8 °F 33.8 °F 100% 30.13 in 5.0 mi ESE 10.4 mph - N/A   Overcast
2:45 AM 35.6 °F 29.2 °F 35.6 °F 100% 30.12 in 7.0 mi ESE 8.1 mph - N/A   Overcast
3:00 AM 33.8 °F 27.0 °F 33.8 °F 100% 30.12 in 9.0 mi ESE 8.1 mph - N/A   Scattered Clouds
4:00 AM 35 °F - 35 °F 99% 30.10 in - East 8.1 mph - -  
4:00 AM 35.6 °F 28.0 °F 35.6 °F 100% 30.09 in 9.0 mi East 10.4 mph - N/A   Partly Cloudy
5:00 AM 33.8 °F 26.4 °F 33.8 °F 100% 30.08 in 9.0 mi East 9.2 mph - N/A   Partly Cloudy
5:23 AM 33.8 °F 25.8 °F 33.8 °F 100% 30.07 in 5.0 mi ESE 10.4 mph - N/A   Partly Cloudy
5:32 AM 33.8 °F 26.4 °F 33.8 °F 100% 30.07 in 9.0 mi East 9.2 mph - N/A   Partly Cloudy
6:00 AM 33.8 °F 26.4 °F 33.8 °F 100% 30.06 in 9.0 mi East 9.2 mph - N/A   Partly Cloudy
7:00 AM 34 °F - 34 °F 100% 30.06 in - East 9.2 mph - -  
7:00 AM 33.8 °F 26.4 °F 33.8 °F 100% 30.05 in 9.0 mi ESE 9.2 mph - N/A   Scattered Clouds
8:00 AM 35.6 °F 29.9 °F 35.6 °F 100% 30.02 in 9.0 mi ENE 6.9 mph - N/A   Clear
9:00 AM 37.4 °F 30.3 °F 37.4 °F 100% 30.00 in 9.0 mi ESE 10.4 mph - N/A   Mostly Cloudy
10:00 AM 39 °F - 38 °F 95% 29.99 in - East 8.1 mph - -  
10:00 AM 39.2 °F 33.0 °F 37.4 °F 93% 29.98 in 9.0 mi East 9.2 mph - N/A   Overcast
11:00 AM 41.0 °F 36.4 °F 39.2 °F 93% 29.95 in 9.0 mi ESE 6.9 mph - N/A   Overcast
11:11 AM 42.8 °F 37.5 °F 39.2 °F 87% 29.94 in 9.0 mi East 9.2 mph - N/A Rain Light Rain
12:00 PM 42.8 °F 39.3 °F 41.0 °F 93% 29.94 in 9.0 mi East 5.8 mph - N/A Rain Light Rain
1:00 PM 42 °F - 41 °F 96% 29.91 in - ENE 3.5 mph - -  
1:00 PM 42.8 °F 40.1 °F 41.0 °F 93% 29.91 in 9.0 mi East 4.6 mph - N/A Rain Light Rain
2:00 PM 42.8 °F 41.1 °F 41.0 °F 93% 29.87 in 9.0 mi East 3.5 mph - N/A Rain Light Rain
3:00 PM 42.8 °F 38.0 °F 41.0 °F 93% 29.83 in 9.0 mi East 8.1 mph - N/A Rain Light Rain
4:00 PM 42 °F - 42 °F 98% 29.81 in - East 5.8 mph - -  
4:00 PM 42.8 °F 39.3 °F 41.0 °F 93% 29.80 in 7.0 mi ESE 5.8 mph - N/A Rain Light Rain
4:21 PM 42.8 °F 38.6 °F 41.0 °F 93% 29.80 in 5.0 mi East 6.9 mph - N/A Rain Light Rain
4:28 PM 42.8 °F 39.3 °F 41.0 °F 93% 29.80 in 6.0 mi ESE 5.8 mph - N/A Rain Rain
4:33 PM 42.8 °F 39.3 °F 41.0 °F 93% 29.79 in 7.0 mi ESE 5.8 mph - N/A Rain Light Rain
4:52 PM 41.0 °F 38.0 °F 41.0 °F 100% 29.79 in 5.0 mi East 4.6 mph - N/A Rain Rain
5:00 PM 41.0 °F 38.0 °F 41.0 °F 100% 29.79 in 6.0 mi East 4.6 mph - N/A Rain Rain
5:07 PM 41.0 °F 39.0 °F 41.0 °F 100% 29.79 in 5.0 mi East 3.5 mph - N/A Rain Rain
5:15 PM 41.0 °F 38.0 °F 41.0 °F 100% 29.79 in 5.0 mi East 4.6 mph - N/A Rain Rain
5:52 PM 41.0 °F 35.8 °F 41.0 °F 100% 29.78 in 6.0 mi East 8.1 mph - N/A Rain Light Rain
6:00 PM 41.0 °F 35.8 °F 41.0 °F 100% 29.78 in 7.0 mi East 8.1 mph - N/A Rain Light Rain
6:24 PM 41.0 °F 35.2 °F 41.0 °F 100% 29.78 in 5.0 mi ESE 9.2 mph - N/A Rain Rain
7:00 PM 41 °F - 40 °F 95% 29.79 in - East 8.1 mph - -  
7:00 PM 41.0 °F 35.8 °F 41.0 °F 100% 29.78 in 4.0 mi East 8.1 mph - N/A Rain Rain
7:25 PM 41.0 °F 34.7 °F 41.0 °F 100% 29.77 in 6.0 mi East 10.4 mph - N/A Rain Rain
7:41 PM 41.0 °F 34.3 °F 41.0 °F 100% 29.76 in 5.0 mi ESE 11.5 mph - N/A Rain Rain
8:00 PM 41.0 °F 34.7 °F 41.0 °F 100% 29.76 in 4.0 mi East 10.4 mph - N/A Rain Rain
8:08 PM 41.0 °F 34.7 °F 39.2 °F 93% 29.77 in 6.0 mi ESE 10.4 mph - N/A Rain Rain
8:18 PM 41.0 °F 34.7 °F 39.2 °F 93% 29.77 in 5.0 mi East 10.4 mph - N/A Rain Rain
8:54 PM 41.0 °F 33.9 °F 41.0 °F 100% 29.75 in 6.0 mi East 12.7 mph - N/A Rain Rain
9:00 PM 41.0 °F 33.9 °F 39.2 °F 93% 29.75 in 6.0 mi East 12.7 mph - N/A Rain Light Rain
9:24 PM 41.0 °F 33.9 °F 39.2 °F 93% 29.76 in 5.0 mi ESE 12.7 mph - N/A Rain Rain
10:00 PM 40 °F - 40 °F 99% 29.78 in - ENE 5.8 mph - -  
10:00 PM 41.0 °F 37.1 °F 41.0 °F 100% 29.77 in 5.0 mi ENE 5.8 mph - N/A Rain Light Rain
10:01 PM 41.0 °F 37.1 °F 39.2 °F 93% 29.77 in 6.0 mi ENE 5.8 mph - N/A Rain Light Rain
11:00 PM 41.0 °F 33.9 °F 39.2 °F 93% 29.76 in 6.0 mi East 12.7 mph - N/A Rain Rain
11:03 PM 41.0 °F 34.3 °F 39.2 °F 93% 29.76 in 5.0 mi East 11.5 mph - N/A Rain Rain
11:11 PM 41.0 °F 33.9 °F 39.2 °F 93% 29.76 in 6.0 mi ESE 12.7 mph - N/A Rain Light Rain